User: anonymous   Login
Location: Morehead State University
(38.1872°N, 83.4339°W)
Time: 20:26:55
(UTC-05:00)
Language:

Okean 2 - Orbit

View from above orbital plane
View from above orbital plane
View from above satellite
View from above satellite

Ground track
Ground track

The orbit data is extracted from the following two-line orbital elements,

1 20510U 90018A   14329.79110914  .00002440  00000-0  21158-3 0  8930
2 20510 082.5162 347.6465 0011383 252.1259 160.7716 14.96655187341548
Epoch (UTC): 25 November 2014 18:59:11
Eccentricity: 0.0011383
inclination: 82.5162°
perigee height: 569 km
apogee height: 585 km
right ascension of ascending node: 347.6465°
argument of perigee: 252.1259°
revolutions per day: 14.96655187
mean anomaly at epoch: 160.7716°
orbit number at epoch: 34154

The dashed part of the orbit path shows where the satellite is in the earth's shadow,  

DLR